Regional Weather Roundup
Issued by NWS

Home | Current Version | Previous Version | Graphics & Text | Print | Product List | Glossary On
Versions: 1 2 3 4 5 6 7 8 9 10 11 12 13 14 15 16 17 18 19 20 21 22 23 24 25 26 27 28 29 30 31 32 33 34 35 36 37 38 39 40 41 42 43 44 45 46 47 48 49 50
000
ASUS45 KTFX 190610
RWRMT
MONTANA REGIONAL WEATHER ROUNDUP
NATIONAL WEATHER SERVICE GREAT FALLS MT
1100 PM MST SUN FEB 18 2018

NOTE: "FAIR" INDICATES FEW OR NO CLOUDS BELOW 12000 FEET WITH NO
SIGNIFICANT WEATHER AND/OR OBSTRUCTIONS TO VISIBILITY.

MTZ001>007-043-190700-
WEST OF THE DIVIDE

CITY           SKY/WX    TMP DP  RH WIND       PRES   REMARKS
KALISPELL      FAIR       6  -5  60 NE18G28   29.95F WCI -13
MISSOULA       MOCLDY     8  -5  55 E13       29.89R WCI  -8
BUTTE          LGT SNOW  -1  -8  72 NW7       29.70R WCI -14
MULLAN PASS    CLOUDY    -3  -6  87 VRB7      29.57R FOG     WCI -16
ANACONDA         N/A     -2  -8  78 N14       29.76F WCI -21
DEER LODGE       N/A      0  -9  65 MISG      29.82S
HAMILTON         N/A      9   0  66 MISG      29.80S
RONAN            N/A      3   1  92 SE6       29.92R WCI  -8
$$

MTZ008-052>055-190700-
SOUTHWEST MONTANA

CITY           SKY/WX    TMP DP  RH WIND       PRES   REMARKS
BOZEMAN        LGT SNOW   5  -2  72 W13       29.79S WCI -12
DILLON         LGT SNOW  -4  -4 100 NE21      29.68R FOG     WCI -28
ENNIS          FLURRIES   1  -6  71 N15G22    29.72R WCI -18
W YELLOWSTONE  LGT SNOW   3   0  85 CALM      29.48S
THREE FORKS      N/A      5  -3  69 N8        29.83R WCI  -8
$$

MTZ009-010-012-014-046-048-049-054-190700-
EAST SLOPES AND CENTRAL MONTANA

CITY           SKY/WX    TMP DP  RH WIND       PRES   REMARKS
CUT BANK       CLOUDY   -10 -15  78 NW7       30.02S WCI -25
GREAT FALLS    CLOUDY    -5  -9  83 N5        30.03R
MALMSTROM AFB  FLURRIES  -4  -7  89 N5        30.06R
HELENA         CLOUDY     1  -7  68 NW10      29.94S WCI -15
AUGUSTA        LGT SNOW  -6 -10  83 N10       29.94S WCI -24
BOWMANS CRNR   LGT SNOW  -6 -10  84 N9        29.94S WCI -23
FAIRFIELD      LGT SNOW  -5 -10  77 N6        30.01R WCI -17
POWER          LGT SNOW  -5  -9  82 N8        30.01S FOG     WCI -20
RAYNESFORD     SNOWSHWR  -6 -10  81 CALM      29.98R
ULM            LGT SNOW  -3  -7  84 NE6       30.03S WCI -15
WHITE SULPHUR    N/A     -2 -11  65 NE8       29.78S WCI -17
$$

MTZ011-013-016-021-045-047-050-051-190700-
NORTH CENTRAL MONTANA

CITY           SKY/WX    TMP DP  RH WIND       PRES   REMARKS
HAVRE          FAIR     -11 -14  86 SW5       30.15R
LEWISTOWN      FLURRIES  -3  -6  87 W6        29.95S WCI -15
N BAR RANCH    CLOUDY    -2  -9  71 CALM      29.94S HAZE
CHINOOK          N/A     -2  -8  78 CALM      30.17R
GEYSER         FLURRIES  -6  -9  86 E3        29.98R
STANFORD       FLURRIES  -6 -10  86 NW5       29.94R
WINIFRED       FLURRIES  -2  -5  85 CALM      30.01R
$$

MTZ017>020-022>027-061-062-190700-
NORTHEAST MONTANA

CITY           SKY/WX    TMP DP  RH WIND       PRES   REMARKS
GLASGOW        FLURRIES   1  -4  79 NW6       30.14R WCI -10
GLENDIVE       CLOUDY     2  -3  80 N8        30.12R WCI -12
JORDAN           N/A     -6 -10  83 W6        30.09S WCI -19
MALTA          CLOUDY   -11 -15  84 CALM      30.16R
SIDNEY         FAIR       0  -5  79 W6        30.17R WCI -12
WOLF POINT     CLOUDY   -12 -18  74 S5        30.18R
PLENTYWOOD       N/A     -2  -8  78 CALM      30.11R
POPLAR           N/A     -9 -15  77 CALM      30.18R
SCOBEY           N/A     -1 -10  65 CALM      30.07
$$

MTZ028>42-056>058-190700-
SOUTHCENTRAL AND SOUTHEAST MONTANA

CITY           SKY/WX    TMP DP  RH WIND       PRES   REMARKS
BAKER          LGT SNOW   4   0  83 N10       30.04R FOG     WCI -11
BILLINGS       LGT SNOW   1  -2  87 NE9       29.97F FOG     WCI -14
LIVINGSTON       N/A      1  -5  75 E21       29.80F WCI -21
MILES CITY     LGT SNOW   4   1  88 N7        30.08S FOG     WCI  -8
BIG TIMBER     CLOUDY    -2  -6  84 NE10      29.91S WCI -19
EKALAKA          N/A      3  -4  72 N7        29.93  WCI  -9
FORSYTH          N/A      3   0  85 N5        30.07S
HARLOWTON      LGT SNOW  -2  -6  82 NE5       29.92R
LAUREL           N/A      1  -2  85 NE14      29.99F HAZE    WCI -17
$$

REGIONAL REPORTS...DAKOTAS

CITY           SKY/WX    TMP DP  RH WIND       PRES   REMARKS
WILLISTON      FAIR      -7 -10  87 CALM      30.16R
MINOT          FAIR      -3 -12  65 NW6       30.13R WCI -15
DICKINSON      LGT SNOW   5  -1  76 N6        30.05R WCI  -6
BEACH          CLOUDY     1  -2  85 CALM      30.11R
CROSBY         FAIR     -18 -24  76 SW7       30.12S WCI -35
TIOGA          FAIR      -9 -13  84 S6        30.12R WCI -23
BISMARCK       CLOUDY     8  -1  66 N8        30.13R WCI  -4
GRAND FORKS    FAIR       8  -2  63 N17       30.10R WCI -10
FARGO          FAIR       9   3  77 N18       30.05R WCI -10
BUFFALO SD       N/A      5   0  79 NE14      29.92S WCI -12
RAPID CITY     LGT SNOW   4   1  88 N20       29.93R FOG     WCI -17
$$

REGIONAL REPORTS...WYOMING/IDAHO/WASHINGTON

CITY           SKY/WX    TMP DP  RH WIND       PRES   REMARKS
GILLETTE       CLOUDY     2  -3  80 N16       29.83F WCI -18
SHERIDAN       CLOUDY     2  -1  88 NE3       29.92S
BUFFALO WY     CLOUDY     1  -3  83 N8        29.82F WCI -13
CODY           FAIR      -2  -8  76 NW5       29.80R
YELLOWSTONE LA   N/A      7   4  87 CALM      29.44S
IDAHO FALLS    MOCLDY    26  21  81 SW20      29.52R WCI  12
SALMON         FLURRIES  18   8  65 N15       29.64R WCI   4
BOISE          FAIR      26  21  81 W6        29.63R WCI  19
SPOKANE        MOCLDY    14   3  61 NE16      29.83R WCI  -2
$$

REGIONAL REPORTS...ALBERTA

CITY           SKY/WX    TMP DP  RH WIND       PRES   REMARKS
CALGARY        PTCLDY    -4  -9  77 W5        30.03S
CARDSTON         N/A     -8 -13  77 SE5         N/A
EDMONTON       CLOUDY     0 -11  60 W6        30.09F WCI -12
FORT MCMURRAY  MOCLDY    -4 -11  71 SW7       30.02F WCI -18
HIGH LEVEL     MOCLDY    12   3  67 VRB2      29.95F
LETHBRIDGE     CLOUDY   -13 -17  84 W5        30.10S
LLOYDMINSTER   CLEAR    -11 -17  77 W12       30.07R WCI -31
MEDICINE HAT   CLEAR    -11 -15  84 SW5       30.17R
MILK RIVER       N/A    -13 -18  77 NW9         N/A  WCI -31
PEACE RIVER    PTCLDY     3  -6  66 W10       30.06F WCI -12
PINCHER CREEK  FLURRIES  -6  -9  84 W6        30.02S WCI -18
WATERTON GATE    N/A     -9 -15  77 CALM        N/A
$$

REGIONAL REPORTS...SASKATCHEWAN

CITY           SKY/WX    TMP DP  RH WIND       PRES   REMARKS
CORONACH         N/A     -6 -11  77 NW7         N/A  WCI -20
CYPRESS HILLS    N/A     -6 -11  77 NW3         N/A
ESTEVAN        PTCLDY   -15 -18  84 W3        30.12S
MOOSE JAW        N/A     -8 -13  77 W9          N/A  WCI -25
PRINCE ALBERT  CLEAR    -22 -27  76 CALM      30.18S
REGINA         CLEAR    -13 -18  77 W5        30.12R
ROCKGLEN         N/A     -8 -11  84 W5          N/A
SASKATOON      PTCLDY   -13 -18  77 SW6       30.16R WCI -27
SWIFT CURRENT  CLEAR    -13 -18  77 SW10      30.07R WCI -32
VAL MARIE        N/A     -9 -15  77 NW8         N/A  WCI -26
$$



USA.gov is the U.S. government's official web portal to all federal, state and local government web resources and services.